Regional Weather Roundup
Issued by NWS

Home | Current Version | Previous Version | Text Only | Print | Product List | Glossary Off
Versions: 1 2 3 4 5 6 7 8 9 10 11 12 13 14 15 16 17 18 19 20 21 22 23 24 25 26 27 28 29 30 31 32 33 34 35 36 37 38 39 40 41 42 43 44 45 46 47 48 49 50

000
ASUS45 KABQ 190601
RWRNM
NEW MEXICO REGIONAL WEATHER ROUNDUP
NATIONAL WEATHER SERVICE ALBUQUERQUE NM
1100 PM MST SAT NOV 18 2017

NOTE: "FAIR" MEANS FEW OR NO CLOUDS BELOW 12,000 FEET AGL WITH NO
       SIGNIFICANT WEATHER OR OBSTRUCTIONS TO VISION.

      THIS PRODUCT IS RELEASED AS TWO VERSIONS.  ONE VERSION NEAR
      THE TOP OF THE HOUR CONTAINING PRELIMINARY DATA FROM ALBUQUERQUE
      AND OTHER STATIONS.  A FINAL VERSION WITH ADDITIONAL DATA IS
      ISSUED ABOUT 10 MINUTES AFTER THE HOUR.

NMZ501-503-504-510>518-190700-
NORTHWEST PLATEAU/NORTHCENTRAL MOUNTAINS

CITY           SKY/WX    TMP DP  RH WIND       PRES   REMARKS
FARMINGTON     FAIR      21   6  52 NE6       30.38R WCI  13
6HR MIN TEMP:  19; 6HR MAX TEMP:  41;

LOS ALAMOS     FAIR      37  11  34 CALM      30.37R
SANTA FE       FAIR      26  12  55 N5        30.34S WCI  20
6HR MIN TEMP:  21; 6HR MAX TEMP:  40;

TAOS           FAIR      17   2  51 N7        30.39R WCI   8
ANGEL FIRE     FAIR      19  12  77 CALM      30.38R

$$
NMZ402-403-502-505>509-190700-
WESTCENTRAL MOUNTAINS/SOUTHWEST MOUNTAINS

CITY           SKY/WX    TMP DP  RH WIND       PRES   REMARKS
GALLUP         FAIR      18   9  68 CALM      30.38R
6HR MIN TEMP:  18; 6HR MAX TEMP:  45;

GRANTS         FAIR      23   1  39 NW10      30.40R WCI  12
SILVER CITY    FAIR      32  16  51 NW7       30.31R WCI  26

$$
NMZ407-409-411-412-190700-
SOUTHERN DESERTS

CITY           SKY/WX    TMP DP  RH WIND       PRES   REMARKS
DEMING         FAIR      41  10  28 E8        30.30R
6HR MIN TEMP:  40; 6HR MAX TEMP:  60;

LAS CRUCES     FAIR      46  22  39 E6        30.31R
HOLLOMAN AFB   FAIR      38  17  43 CALM      30.34R
ALAMOGORDO     FAIR      37  16  41 N8        30.32R WCI  31
T OR C         FAIR      41   3  20 N7        30.31S
6HR MIN TEMP:  38; 6HR MAX TEMP:  55;


$$
NMZ519>523-190700-
CENTRAL VALLEYS/CENTRAL HIGHLANDS

CITY           SKY/WX    TMP DP  RH WIND       PRES   REMARKS
ALBUQUERQUE    FAIR      36   5  27 CALM      30.35R
6HR MIN TEMP:  34; 6HR MAX TEMP:  50;

MORIARTY ARPT  FAIR      21   6  52 CALM      30.36S
6HR MIN TEMP:  18; 6HR MAX TEMP:  47;

CLINES CORNERS NOT AVBL
BELEN          FAIR      29   2  31 NW7       30.36R WCI  22
6HR MIN TEMP:  29; 6HR MAX TEMP:  47;

SOCORRO        FAIR      31   1  27 N3        30.35R
6HR MIN TEMP:  31; 6HR MAX TEMP:  48;


$$
NMZ524>526-539-540-190700-
SOUTHCENTRAL MOUNTAINS

CITY           SKY/WX    TMP DP  RH WIND       PRES   REMARKS
RUIDOSO        FAIR      28  19  69 NW5       30.37S WCI  23

$$
NMZ527>531-190700-
NORTHEAST HIGHLANDS/NORTHEAST PLAINS

CITY           SKY/WX    TMP DP  RH WIND       PRES   REMARKS
LAS VEGAS      FAIR      22  15  75 E5        30.32R WCI  16
6HR MIN TEMP:  22; 6HR MAX TEMP:  39;

RATON          FAIR      25  14  63 N3        30.31S
6HR MIN TEMP:  23; 6HR MAX TEMP:  38;

CLAYTON        FAIR      29  13  51 W10       30.29F WCI  20
6HR MIN TEMP:  28; 6HR MAX TEMP:  38;


$$
NMZ532>537-190700-
EASTCENTRAL PLAINS

CITY           SKY/WX    TMP DP  RH WIND       PRES   REMARKS
SANTA ROSA     FAIR      31  20  63 S8        30.34S WCI  24
TUCUMCARI      FAIR      30  15  53 SW5       30.31S WCI  25
6HR MIN TEMP:  28; 6HR MAX TEMP:  46;

CANNON AFB     FAIR      35  12  39 CALM      30.36S
6HR MIN TEMP:  31; 6HR MAX TEMP:  44;

CLOVIS AIRPORT FAIR      30  16  56 SW3       30.36F

$$
NMZ028-029-538-190700-
SOUTHEAST PLAINS

CITY           SKY/WX    TMP DP  RH WIND       PRES   REMARKS
ROSWELL        FAIR      34  16  47 SW6       30.35S WCI  29
6HR MIN TEMP:  32; 6HR MAX TEMP:  54;

ARTESIA        FAIR      37  18  44 MISG      30.36S
CARLSBAD       FAIR      32  24  72 SW5       30.35S WCI  27
6HR MIN TEMP:  32; 6HR MAX TEMP:  54;

HOBBS          FAIR      30  18  59 NE5       30.37S WCI  25


$$



USA.gov is the U.S. government's official web portal to all federal, state and local government web resources and services.